Regional Weather Roundup
Issued by NWS

Home | Current Version | Previous Version | Graphics & Text | Print | Product List | Glossary On
Versions: 1 2 3 4 5 6 7 8 9 10 11 12 13 14 15 16 17 18 19 20 21 22 23 24 25 26 27 28 29 30 31 32 33 34 35 36 37 38 39 40 41 42 43 44 45 46 47 48 49 50
000
ASUS43 KMKX 241511
RWRWI

WISCONSIN REGIONAL WEATHER ROUNDUP
NATIONAL WEATHER SERVICE MILWAUKEE/SULLIVAN WI
1000 AM CDT TUE MAY 24 2016

NOTE: "FAIR" INDICATES FEW OR NO CLOUDS BELOW 12,000 FEET WITH NO
SIGNIFICANT WEATHER AND/OR OBSTRUCTIONS TO VISIBILITY.

WIZ001-002-006>008-014>016-023>028-241600-
NORTHWEST WISCONSIN

CITY           SKY/WX    TMP DP  RH WIND       PRES   REMARKS
SUPERIOR ARPT  CLOUDY    61  60  98 CALM      29.86R FOG
ASHLAND        LGT RAIN  62  62 100 N8        29.86S FOG
HAYWARD        CLOUDY    67  60  78 W7        29.87R
SIREN          CLOUDY    64  62  93 W6        29.86F FOG
CUMBERLAND     CLOUDY    66  61  82 W8        29.87S
RICE LAKE      CLOUDY    68  60  76 S5        29.89R
CHETEK         CLOUDY    67  63  87 CALM      29.88R
LADYSMITH      CLOUDY    67  64  89 S6        29.90R
EAU CLAIRE     CLOUDY    69  62  78 SW8       29.87R
MENOMONIE      CLOUDY    69  69  99 S6        29.87S
NEW RICHMOND   PTSUNNY   73  61  66 W7        29.86S
OSCEOLA        PTSUNNY   71  64  78 W6        29.88S
$$

WIZ003>005-009-010-017-018-241600-
NORTH CENTRAL WISCONSIN

CITY           SKY/WX    TMP DP  RH WIND       PRES   REMARKS
MANITOWISH WTR LGT RAIN  66  64  95 SW6       29.89R
ARBOR VITAE    CLOUDY    67  62  83 SW8       29.89S
WOODRUFF       CLOUDY    67  62  83 SW8       29.89S
RHINELANDER    CLOUDY    69  61  75 VRB7      29.91S
EAGLE RIVER      N/A     68  62  79 SW8       29.90S
LAND O LAKES   CLOUDY    67  63  87 SW7       29.91R
PHILLIPS       PTSUNNY   66  63  90 S8        29.88S
TOMAHAWK       CLOUDY    67  62  84 CALM      29.90S
MEDFORD        CLOUDY    64  60  87 S6        29.91R
MERRILL        CLOUDY    67  60  79 S3        29.91S
$$

WIZ029-030-035-036-043>047-241600-
CENTRAL WISCONSIN

CITY           SKY/WX    TMP DP  RH WIND       PRES   REMARKS
WAUSAU         MOSUNNY   69  59  70 S6        29.89S
MOSINEE        MOSUNNY   66  61  82 S3        29.92S
MARSHFIELD     CLOUDY    71  57  61 SW7       29.90R
STEVENS POINT  CLOUDY    68  53  58 SW8       29.91S
WAUPACA        CLOUDY    74  54  49 SW8       29.92R
WAUTOMA        PTSUNNY   73  56  54 SW9       29.93R
WISC RAPIDS    CLOUDY    71  55  56 S8        29.92R
CAMP DOUGLAS   NOT AVBL
$$

WIZ011>013-019>022-031-037>040-048>050-241600-
NORTHEAST WISCONSIN

CITY           SKY/WX    TMP DP  RH WIND       PRES   REMARKS
ANTIGO         CLOUDY    68  62  80 SW5       29.92S
SHAWANO        MOSUNNY   74  52  47 W3        29.91S
OCONTO         CLOUDY    75  54  46 W5        29.90R
STURGEON BAY   NOT AVBL
GREEN BAY      MOSUNNY   76  53  44 S9        29.91S
MANITOWOC      SUNNY     78  51  38 S17       29.92F
APPLETON       PTSUNNY   73  52  46 SW8       29.90S
CLINTONVILLE   MOSUNNY   73  50  43 CALM      29.91R
OSHKOSH        MOSUNNY   77  56  48 S10       29.92R
$$

WIZ032>034-041-042-053>061-241600-
SOUTHWEST WISCONSIN

CITY           SKY/WX    TMP DP  RH WIND       PRES   REMARKS
LA CROSSE      PTSUNNY   73  59  61 SW8       29.90R
SPARTA         CLOUDY    72  60  66 SW5       29.91R
VIROQUA        PTSUNNY   70  58  65 SW8       29.93R
BOSCOBEL       CLOUDY    73  58  59 S7        29.92S
PRAIRIE DU CHI PTSUNNY   71  58  64 S6        29.92S
PLATTEVILLE    CLOUDY    71  57  61 SW8       29.95R
$$

WIZ056-057-062-063-064-067-068-241600-
SOUTH CENTRAL WISCONSIN

CITY           SKY/WX    TMP DP  RH WIND       PRES   REMARKS
REEDSBURG      CLOUDY    71  57  62 S5        29.92S
BARABOO/DELLS  CLOUDY    72  54  54 SW8       29.93R
LONE ROCK      CLOUDY    72  60  66 SW8       29.93R
MINERAL POINT  CLOUDY    72  55  56 SW7       29.95S
MADISON        PTSUNNY   73  55  53 S7        29.94R
MIDDLETON      MOSUNNY   76  56  51 S9        29.94S
WATERTOWN      MOSUNNY   74  56  52 S9        29.95S
MONROE         MOSUNNY   72  55  56 S9        29.96R
JANESVILLE     SUNNY     77  55  47 S10       29.95S
$$

WIZ051-052-058>065-066-070>072-241600-
SOUTHEAST WISCONSIN

CITY           SKY/WX    TMP DP  RH WIND       PRES   REMARKS
MILWAUKEE      MOSUNNY   77  54  44 S13       29.96S
WAUKESHA       SUNNY     73  54  49 S9        29.97S
MILWAUKEE/TIMM SUNNY     75  48  38 SW10      29.96S
RACINE         SUNNY     77  52  41 SW10      29.98S
BURLINGTON     SUNNY     76  51  40 SW10      29.97R
KENOSHA        SUNNY     77  53  43 SW12      29.98R
FOND DU LAC    SUNNY     77  55  46 SW10      29.93R
SHEBOYGAN      SUNNY     77  54  44 SW12      29.93F
WEST BEND      SUNNY     75  52  43 S9        29.95S
JUNEAU         MOSUNNY   74  56  52 S10G17    29.95S
$$

LSZ147-162-241600-
LAKE SUPERIOR

STATION/POSITION TIME  TEMP    WIND        PRES    WAVE
                       AIR SEA DIR/SP/G            HT/PER
                 (UTC) (F)     (DEG/KT/KT) (MB)    (FT/S)
W MID LAKE BUOY  1450   47 38  130/  4/  6 1011.9R   1
DEVILS ISLAND    1500   56      10/  7/  8 1011.5F
PORT WING        1420           10/  5/ 13 1011.5
SAXON HARBOR     1400   60     210/  2/  4 1010.5S
$$

LMZ867-665-643>646-241600-
LAKE MICHIGAN

STATION/POSITION TIME  TEMP    WIND        PRES    WAVE
                       AIR SEA DIR/SP/G            HT/PER
                 (UTC) (F)     (DEG/KT/KT) (MB)    (FT/S)
CHAMBERS ISLAND  1400   66     170/  5/  9 1012.9R
N MID LAKE BUOY  1450   47 44  190/ 10/ 12 1013.1F   2/ 4
NORTHPORT PIER   1400          130/  6/  9 1012.5
SISTER BAY       1404   69     300/  9/  9   N/A
ALGOMA LAKESHORE 1416             CALM       N/A
KEWAUNEE LAKESHO 1400   54     160/  7/  8 1012.5F
SHEBOYGAN LAKESH 1500   68     170/ 13/ 13 1013.7F
PORT WASHINGTON  1440   64     180/  5/  7 1014.6F
S MID LAKE BUOY  1450   51 47  180/ 10/ 10 1015.5F   1
KENOSHA   LAKESH 1500   61     170/ 13/ 15 1014.6S
$$

TC  - TEMPERATURE IN CELSIUS
VSB - VISIBILITY IN STATUTE MILES
WCI - WIND CHILL INDEX
HX  - HEAT INDEX




USA.gov is the U.S. government's official web portal to all federal, state and local government web resources and services.